Showing default

SHERPA-LTC2, 53754

Orbit data source: Space-Track

SHERPA-LTC2, 53754 is an American payload satellite in LEO that was launched on Mon, 05 Sep 2022 UTC via an FALCON 9 launch vehicle from the Air Force Eastern Test Range (AFETR). Payload-class satellites include a variety of spacecraft equipped with specific instruments for various scientific and technological missions. These include communications satellites like Starlink; space stations such as the ISS; scientific satellites like the Hubble; Earth observation satellites from companies like Planet Labs, Umbra, and HawkEye 360; GPS; miniature CubeSats for education and research; and military/defense satellites.

Loading next visibility...
Identifier
53754, 2022-107BG
Orbit
LEO
Country
Flag of USUS
Related business
Manufacturer
SFLIN/ADIG
Mission
Operational Commercial Communications
Bus & Motor
ESPA/SHERPA-LTE, Unknown motor
Mass
180 kg wet, 140 kg dry
Launch date (UTC)
2022-09-05 (4 years ago)
Launch vehicle
FALCON 9
Launch site
Air Force Eastern Test Range (AFETR)
Object type
Payload
Rocket body
Debris
Shape & HBR
Hex Cyl + Box + Box, 0.7 m
Radar Cross Section
1.440 m², Large (>1 m²)

Expand to show TLE details & history
Last TLE update: 2 days ago

TLE from 2 days ago
0 SHERPA-LTC2
1 53754U 22107BG  26171.38238758  .00003612  00000-0  19260-3 0  9990
2 53754  53.2348 206.8038 0393554 235.0113 121.3325 14.69739518203018
Epoch: 2026-06-20T09:10Z
TLE epoch observation values (Epoch: 2026-06-20T09:10:38.286Z)
Latitude
-0.00004°
Longitude
160.54643°
Altitude
814.562 km
Speed
7.366 km/s
True Right ascension
13h 47m 12s
True Declination
0° 00' 00"
Sunlit
Object was in daylight at epoch
Visualization orbit readout
Latitude
Unknown
Longitude
Unknown
Altitude
Unknown
Speed
Unknown
Apparent Right ascension
Unknown
Apparent Declination
Unknown
Sunlit
N/A
Visualization observer readout
Local Sidereal Time
21:24:14
Azimuth
Unknown
Elevation
Unknown
Doppler factor
Unknown
Orbital elements
Apogee altitude
939.211 km
Perigee altitude
385.066 km
Semi-major axis
7,040.275 km
Eccentricity
0.03936
Inclination
53.2348°
RAAN
206.8038°
Arg. of periapsis
235.0113°
True anomaly
125.08575°
Mean anomaly
121.3325°
Eccentric anomaly
123.21891°
Mean motion
3.67417 °/min
Orbital period
97.98 mins
BSTAR
0.0001926
Loading maneuver chart data...
Computing Atmospheric mass density...
Loading historical data...
Loading historical data...
Loading historical data...
Loading historical data...
Loading historical data...
Loading historical data...
Loading historical data...

Documentation

Showing up to 5 results
|